Theta_e
342 340 338 338 335 332 331 328 331 332 333 331 330 331 331 325 311 309 308 309 309 307 306 307 307 307 306 305 311 315 317 319
342 340 338 338 337 336 337 337 338 333 330 330 331 332 329 315 309 308 308 308 308 306 306 306 307 306 305 306 314 316 317 317
342 341 339 337 337 336 337 336 337 334 332 331 333 331 319 309 308 308 308 308 307 305 307 306 306 306 306 311 314 315 316 318
342 341 340 337 336 336 336 335 335 334 332 333 331 324 312 309 309 308 308 307 306 305 306 305 308 308 311 316 318 319 319 318
342 341 340 338 337 337 336 335 334 334 333 332 318 314 310 309 309 308 308 307 305 306 305 309 311 311 314 317 318 317 316 311
341 340 339 338 337 337 336 334 334 334 332 326 317 317 314 311 311 308 307 306 305 304 307 309 311 311 313 315 317 317 316 309
343 340 339 337 337 337 336 334 333 332 330 314 323 320 316 312 312 307 306 305 306 310 309 308 307 307 308 313 314 315 313 308
339 341 338 337 336 336 336 334 332 327 327 314 322 320 317 313 311 310 307 309 309 309 308 306 306 306 306 307 311 312 310 305
339 338 337 337 336 335 335 334 330 326 324 323 318 318 316 316 313 311 310 309 309 308 308 308 308 306 307 308 307 310 310 306
337 337 336 335 334 335 335 333 329 326 324 324 318 317 316 314 311 311 309 309 308 308 308 310 307 307 305 305 306 307 307 307
339 336 336 334 333 334 334 333 328 326 324 323 319 316 314 311 310 310 309 308 307 307 308 308 307 306 306 307 307 305 303 303
338 337 335 334 332 333 334 331 328 326 322 319 319 313 312 311 310 309 308 307 306 306 308 309 308 307 307 306 304 304 303 302
338 337 334 332 330 333 333 332 326 324 321 317 317 312 310 310 310 309 308 306 306 306 308 309 308 307 305 304 305 305 304 303
338 337 335 332 331 331 332 332 328 323 320 316 316 314 309 309 309 308 308 306 305 306 308 309 307 305 304 304 304 303 304 303
337 336 335 331 330 328 329 327 323 320 318 316 315 315 311 308 308 308 307 305 305 305 306 306 306 304 303 303 303 303 302 301
335 335 335 331 329 327 327 326 322 321 318 315 315 314 313 308 308 307 306 305 305 305 305 305 304 303 304 304 306 305 302 299
335 335 334 332 329 327 326 324 322 320 317 315 314 313 313 309 307 307 306 305 304 304 303 304 303 303 304 303 305 305 303 301
336 335 334 331 328 327 325 324 321 319 316 315 313 313 312 309 307 307 306 304 304 303 303 303 303 303 302 303 304 303 303 302
336 335 334 332 329 326 325 324 321 319 316 314 313 313 312 309 307 306 305 304 303 303 302 302 302 301 301 301 301 300 299 302
334 334 333 331 329 326 324 323 322 319 316 314 313 313 313 310 307 306 304 303 302 302 301 301 301 300 299 298 298 298 300 298
Wind_Speed
27 29 28 28 28 29 28 28 27 26 24 22 18 15 14 14 14 13 12 11 9 9 10 9 8 8 9 13 15 16 12 11
25 30 32 31 29 29 29 29 28 26 24 22 18 17 16 16 16 15 14 12 11 11 10 9 8 9 11 16 20 15 6 3
28 31 33 33 33 31 28 27 28 27 26 22 19 19 19 17 19 16 15 13 11 11 11 9 9 10 13 16 18 10 7 4
30 33 34 35 36 34 31 30 29 29 28 24 22 21 21 23 20 18 15 13 13 12 12 11 11 11 13 17 14 13 10 8
35 35 35 36 37 35 33 32 31 30 29 26 26 22 24 25 22 20 18 16 15 14 14 13 13 9 11 15 8 7 7 9
37 38 39 37 36 36 34 33 33 34 31 29 27 27 26 26 21 21 20 18 16 15 14 14 19 18 15 19 13 8 6 8
37 42 42 40 39 38 34 33 34 34 34 33 29 29 28 27 22 23 21 19 18 16 16 14 16 15 16 20 18 13 9 7
42 43 44 44 42 40 36 35 34 31 33 38 33 33 27 26 22 21 20 21 20 21 16 16 15 14 14 15 18 11 8 5
45 46 46 47 46 41 39 37 34 34 33 37 39 34 30 29 29 26 25 22 23 19 17 18 16 15 16 15 15 13 5 3
44 50 47 47 48 44 41 39 37 38 37 36 40 37 34 33 31 29 27 27 25 25 23 21 18 16 16 13 14 15 15 13
46 52 53 51 49 46 44 43 40 41 38 38 39 40 35 36 32 31 30 30 29 27 25 23 21 19 19 18 14 13 12 13
48 48 54 54 54 47 46 45 43 42 40 39 37 42 39 36 33 35 33 30 29 27 27 24 24 23 23 20 14 12 11 8
53 51 52 53 53 53 54 55 46 44 42 42 40 42 43 39 37 37 34 33 33 31 30 30 28 27 26 23 20 15 9 8
54 52 51 55 51 54 56 58 53 47 43 42 42 41 44 42 41 40 36 35 34 35 36 35 31 33 29 26 17 17 19 18
52 53 51 48 51 46 47 46 44 42 44 44 46 43 44 44 44 41 38 39 39 39 38 38 38 34 27 16 12 10 22 19
48 52 51 47 50 48 51 53 51 50 49 46 48 46 44 47 47 43 41 42 40 39 40 38 37 37 31 22 13 15 13 12
51 52 51 49 48 53 52 47 45 43 40 40 44 45 45 47 48 46 43 44 42 40 41 39 36 37 37 34 20 16 13 17
48 47 47 47 43 53 52 50 42 39 42 43 46 46 46 45 48 47 45 46 43 41 40 41 39 35 38 32 29 27 24 18
41 41 43 43 41 47 55 51 44 41 43 44 46 47 47 48 50 48 47 45 44 43 43 42 40 38 35 34 32 27 21 20
40 37 38 40 39 41 51 48 50 42 42 45 47 49 48 48 49 48 48 47 45 44 43 42 39 34 33 28 26 27 23 26
Wind_Direction
179 178 181 186 186 185 189 191 189 189 192 197 197 190 188 186 182 181 181 180 179 169 159 142 129 117 111 115 114 114 134 110
183 182 183 187 190 190 191 190 192 195 197 202 195 194 193 190 188 187 188 185 180 170 154 141 130 113 108 110 104 96 110 174
187 187 190 192 192 192 197 198 197 197 201 201 198 196 193 188 195 193 191 188 177 167 158 146 133 119 112 109 102 126 151 126
195 193 193 195 195 194 197 203 201 203 205 198 195 196 196 200 197 195 193 187 177 170 161 154 134 107 110 108 130 162 170 148
198 198 196 196 195 197 202 206 204 206 207 196 191 189 192 204 199 194 192 186 181 173 162 143 118 120 139 141 148 204 197 161
199 200 197 201 203 204 207 205 205 208 206 191 182 196 197 205 199 196 191 187 177 168 170 171 167 176 161 134 151 197 216 174
202 204 203 205 205 208 209 210 210 210 202 186 184 202 199 206 203 195 188 187 178 169 193 180 174 170 162 157 157 184 228 140
211 208 209 207 210 210 210 208 214 202 205 189 192 201 202 202 192 194 183 188 179 192 186 175 175 171 165 164 171 191 211 140
208 216 213 213 213 212 210 206 205 202 209 201 198 196 200 194 192 193 185 192 186 185 179 179 182 170 167 169 165 164 185 142
213 214 215 215 217 212 209 201 197 200 205 213 204 194 202 197 196 193 194 190 188 189 183 185 178 177 167 162 166 174 168 146
218 213 214 214 211 211 209 203 195 201 207 215 206 196 203 201 198 196 196 196 194 192 185 188 182 174 160 171 180 176 162 178
222 220 214 212 208 206 207 198 200 204 203 213 210 201 204 202 199 200 203 198 194 186 185 187 184 174 172 174 166 153 180 176
213 221 216 208 201 203 204 200 199 202 205 211 213 205 205 198 202 206 204 199 198 189 187 187 184 181 175 158 155 163 155 162
212 221 222 214 207 211 210 204 203 201 201 205 217 209 206 198 205 211 204 200 199 192 193 186 188 191 175 162 153 172 172 173
212 217 224 221 207 208 205 199 200 193 200 203 216 212 208 202 208 213 206 203 204 200 200 201 193 194 196 171 163 184 180 196
219 221 220 223 211 209 207 201 200 201 200 201 212 214 209 204 208 213 207 207 208 203 203 203 202 190 193 198 194 195 167 163
215 214 217 221 214 211 209 203 205 200 199 198 208 212 213 206 207 210 208 209 209 206 204 202 205 199 199 200 195 185 161 168
209 210 217 221 219 212 211 206 200 199 197 198 206 212 212 208 208 210 209 210 209 208 205 204 205 205 205 205 201 190 178 173
207 209 213 221 217 216 212 208 203 202 198 200 203 211 213 210 210 209 210 210 209 209 206 204 206 208 204 205 208 206 199 182
199 207 208 217 216 215 209 207 206 205 201 201 209 216 218 214 212 212 211 211 210 208 206 207 207 205 203 198 197 187 184 184